User: anonymous   Login
Location: Unspecified
(0.0000°N, 0.0000°E)
Time: 00:06:28
(UTC+00:00)
Language:

IRS-1C - Orbit

View from above orbital plane
View from above orbital plane
View from above satellite
View from above satellite

Ground track
Ground track

The orbit data is extracted from the following two-line orbital elements,

1 23751U 95072A   18112.47841898  .00000021  00000-0  28946-4 0  9999
2 23751  98.7239  56.4319 0000954  84.9527 275.1759 14.22562372158351
Epoch (UTC): 22 April 2018 11:28:55
Eccentricity: 0.0000954
inclination: 98.7239°
perigee height: 816 km
apogee height: 817 km
right ascension of ascending node: 56.4319°
argument of perigee: 84.9527°
revolutions per day: 14.22562372
mean anomaly at epoch: 275.1759°
orbit number at epoch: 15835

The dashed part of the orbit path shows where the satellite is in the earth's shadow,  

DLR